Weather in Vorob'evo

Russia / Vologda Oblast     59°37′37″N   40°53′20″E
temp.,
°C
wind,
m/s
gust,
m/s
humid.,
%
clouds,
%
prec.,
mm/h
press.,
hPa
HPBL,
m
24 may, tue
tue2400:00−1nnw3996100 0.1 1002639
03:00−2nnw2899100 0.4 1003459
06:000n369298 0.2 1004653
09:00+1n4578100 0.3 10051034
12:00+3n4675100 0.1 10071056
15:00+4n467593 0.2 1008977
18:00+4nnw368097 0.4 1009927
21:00+1nnw3109616 0.6 1011387
25 may, wed
wed2500:00+2nnw389547 0.0 1012314
03:000nw3109889 0.0 1012276
06:00+2nnw3892100 0.0 1012296
09:00+5nnw4886100 0.0 1012826
12:00+7nw5879100 0.1 10121047
15:00+7nw4876100 0.2 10121005
18:00+6n488485 0.1 1012911
21:00+4nnw2799100 0.3 1011635
26 may, thu
thu2600:00+4nw2797100 0.1 1010425
03:00+3nw2798100 1.6 1009564
06:00+3wnw3798100 0.2 1008633
09:00+3wnw259888 0.4 1007474
12:00+6wnw348483 0.4 1006864
15:00+9nw346998 0.7 10051279
18:00+7nnw238163 0.1 1004602
21:00+4e1196100 0.1 100313
27 may, fri
fri2700:00+3se259774 0.0 100289
03:00+1se2798100 0.0 1000133
06:00+4se3990100 0.0 999305
09:00+9se467395 0.0 997627
12:00+11se5773100 0.1 9961195
15:00+8se3996100 0.4 997592
18:00+9se3895100 0.1 996517
21:00+8ssw3699100 2.1 997465
28 may, sat
sat2800:00+6sw3898100 0.1 997402
03:00+7s2899100 0.2 996337
06:00+7s379995 0.6 996312
09:00+8s359493 0.6 996352
12:00+13s346725 0.7 9941172
15:00+13sse3476100 2.8 994925
18:00+8sw51094100 1.8 994499
21:00+7sw51196100 1.9 995612